Home   Weather   Nisí Nísyros   Past weeks
Flag for Greece

Past Weather in Nisí Nísyros, Greece — Yesterday and Last 2 Weeks

Now
64 °F

Clear.


Feels Like: 64 °F
Forecast: 75 / 60 °F
Wind: No wind

Location: Kos Airport

Current Time: Apr 26, 2019 at 1:14:11 am

Latest Report: Apr 25, 2019 at 11:50 pm


Visibility: 10 mi

Pressure: 30.15 "Hg

Humidity: 64%

Dew Point: 52 °F

Location of Nisí NísyrosLocation

Past Weather in Nisí Nísyros — Graph

°F

Nisí Nísyros Temperature Yesterday

Maximum temperature yesterday: 75 °F (at 1:50 pm)
Minimum temperature yesterday: 61 °F (at 12:20 am)
Average temperature yesterday: 66 °F

High & Low Weather Summary for the Past Weeks

 TemperatureHumidityPressure
High75 °F (Apr 25, 1:50 pm)100% (Apr 11, 12:50 am)30.30 "Hg (Apr 11, 12:50 am)
Low46 °F (Apr 21, 6:50 am)27% (Apr 22, 11:50 am)29.77 "Hg (Apr 13, 8:20 pm)
Average60 °F62%30.02 "Hg
* Reported Apr 10 11:50 pm — Apr 25 11:50 pm, Nisí Nísyros. Weather by CustomWeather, © 2019

Note: Actual official high and low records may vary slightly from our data, if they occured in-between our weather recording intervals... More about our weather records

Advertising

Nisí Nísyros Weather History for the Previous 24 Hours

Scroll right to see more
 ConditionsComfort  
Time TempWeatherWind HumidityBarometerVisibility
11:50 pm
Thu, Apr 25
64 °FClear.No wind64%30.15 "Hg10 mi
11:20 pm64 °FClear.No wind64%30.15 "Hg10 mi
10:50 pm64 °FClear.6 mph64%30.15 "Hg10 mi
10:20 pm63 °FClear.N/A64%30.15 "Hg10 mi
9:50 pm63 °FClear.N/A64%30.15 "Hg10 mi
9:20 pm64 °FClear.N/A64%30.15 "Hg10 mi
8:50 pm64 °FClear.N/A64%30.15 "Hg10 mi
8:20 pm64 °FClear.No wind56%30.15 "Hg10 mi
7:50 pm66 °FSunny.N/A52%30.15 "Hg10 mi
7:20 pm66 °FSunny.N/A49%30.15 "Hg10 mi
6:50 pm68 °FSunny.N/A46%30.15 "Hg10 mi
6:20 pm70 °FSunny.N/A40%30.15 "Hg10 mi
5:50 pm70 °FSunny.N/A38%30.15 "Hg10 mi
5:20 pm72 °FSunny.N/A38%30.18 "Hg10 mi
4:50 pm73 °FSunny.N/A31%30.18 "Hg10 mi
4:20 pm75 °FSunny.6 mph27%30.18 "Hg10 mi
3:50 pm75 °FSunny.7 mph27%30.18 "Hg10 mi
2:50 pm75 °FSunny.5 mph29%30.21 "Hg10 mi
2:20 pm75 °FSunny.6 mph31%30.21 "Hg10 mi
1:50 pm75 °FSunny.6 mph31%30.21 "Hg10 mi
1:20 pm73 °FSunny.7 mph36%30.24 "Hg10 mi
12:50 pm73 °FSunny.7 mph36%30.24 "Hg10 mi
12:20 pm73 °FSunny.7 mph36%30.24 "Hg10 mi
11:50 am72 °FSunny.7 mph41%30.24 "Hg10 mi
11:20 am70 °FSunny.6 mph43%30.24 "Hg10 mi
10:50 am70 °FSunny.6 mph43%30.24 "Hg10 mi
10:20 am68 °FSunny.5 mph56%30.21 "Hg10 mi
9:50 am66 °FSunny.6 mph56%30.24 "Hg10 mi
8:50 am64 °FPassing clouds.5 mph60%30.21 "HgN/A
8:20 am63 °FPassing clouds.3 mph56%30.21 "HgN/A
7:50 am61 °FPassing clouds.5 mph59%30.21 "HgN/A
7:20 am61 °FPassing clouds.3 mph59%30.18 "HgN/A
6:50 am61 °FPassing clouds.3 mph59%30.18 "HgN/A
6:20 am61 °FPassing clouds.3 mph59%30.21 "HgN/A
5:50 am61 °FPassing clouds.3 mph59%30.21 "HgN/A
5:20 am61 °FPassing clouds.2 mph59%30.21 "HgN/A
4:50 am61 °FPassing clouds.2 mph59%30.21 "HgN/A
4:20 am61 °FPassing clouds.5 mph59%30.21 "HgN/A
3:50 am61 °FPassing clouds.3 mph63%30.21 "HgN/A
2:50 am63 °FPassing clouds.3 mph56%30.21 "HgN/A
1:50 am63 °FPassing clouds.7 mph56%30.21 "HgN/A
1:20 am61 °FPassing clouds.13 mph59%30.21 "HgN/A
Weather by CustomWeather, © 2019

See weather overview